FW2918 Weather Reports


time (UTC)temp
F
wind
direction
speed
knots
gust
knots
rain 1hr
in
rain 24hr
in
rain mn
in
humidity
%
barometer
mb
20260508145306 58 84 2.6 7.8 0.00 0.01 0.01 37 1021.2
20260508144757 58 80 4.3 8.7 0.00 0.01 0.01 36 1021.0
20260508144253 58 80 3.5 12.2 0.00 0.01 0.01 35 1021.2
20260508143746 58 84 3.5 9.6 0.00 0.01 0.01 37 1021.2
20260508143238 58 63 3.5 8.7 0.00 0.01 0.01 35 1021.1
20260508142733 58 83 2.6 8.7 0.00 0.01 0.01 38 1021.2
20260508142226 58 62 3.5 10.4 0.00 0.01 0.01 34 1021.1
20260508141941 58 98 4.3 10.4 0.00 0.01 0.01 34 1021.1
20260508141214 59 84 3.5 10.4 0.00 0.01 0.01 34 1021.1
20260508140709 59 90 2.6 10.4 0.00 0.01 0.01 35 1021.3
20260508140202 59 68 2.6 8.7 0.00 0.01 0.01 37 1021.4
20260508135658 59 64 3.5 12.2 0.00 0.01 0.01 37 1021.3
20260508135150 59 61 2.6 12.2 0.00 0.01 0.01 35 1021.3
20260508135131 59 85 2.6 8.7 0.00 0.01 0.01 37 1021.4
20260508134138 59 338 3.5 11.3 0.00 0.01 0.01 37 1021.4
20260508133857 60 65 3.5 11.3 0.00 0.01 0.01 36 1021.5
20260508133126 60 46 3.5 10.4 0.00 0.01 0.01 36 1021.4
20260508132621 60 339 3.5 8.7 0.00 0.01 0.01 36 1021.5
20260508132115 60 327 3.5 8.7 0.00 0.01 0.01 37 1021.5
20260508131610 61 91 3.5 9.6 0.00 0.01 0.01 35 1021.3
20260508131102 61 329 5.2 10.4 0.00 0.01 0.01 38 1021.1
20260508130557 61 82 5.2 14.8 0.00 0.01 0.01 37 1021.0
20260508130100 62 42 4.3 14.8 0.00 0.01 0.01 38 1021.1
20260508125546 62 84 4.3 12.2 0.00 0.01 0.01 36 1021.2
20260508125038 62 101 4.3 12.2 0.00 0.01 0.01 34 1021.3
20260508125012 62 57 3.5 11.3 0.00 0.01 0.01 37 1021.1
20260508124034 62 112 4.3 11.3 0.00 0.01 0.01 43 1021.4
20260508123524 62 53 3.5 11.3 0.00 0.01 0.01 38 1021.4
20260508123033 62 57 3.5 13.0 0.00 0.01 0.01 37 1021.2
20260508123003 61 102 4.3 13.0 0.00 0.01 0.01 41 1021.2
20260508122032 61 57 4.3 11.3 0.00 0.01 0.01 37 1021.1
20260508121523 60 118 5.2 19.1 0.00 0.01 0.01 39 1021.0
20260508121029 59 59 5.2 19.1 0.00 0.01 0.01 38 1021.0
20260508120522 59 72 3.5 11.3 0.00 0.01 0.01 40 1021.0
20260508120033 59 92 3.5 10.4 0.00 0.01 0.01 43 1021.0
20260508115521 60 67 2.6 7.8 0.00 0.01 0.01 42 1021.1
20260508115030 60 336 3.5 10.4 0.00 0.01 0.01 41 1021.1
20260508114521 60 32 3.5 10.4 0.00 0.01 0.01 39 1021.0
20260508114254 61 69 3.5 13.0 0.00 0.01 0.01 43 1021.0
20260508113959 61 66 4.3 13.0 0.00 0.01 0.01 45 1021.1
20260508113029 61 26 3.5 8.7 0.00 0.01 0.01 48 1021.2
20260508112521 60 284 3.5 11.3 0.00 0.01 0.01 42 1021.2
20260508112030 60 319 4.3 11.3 0.00 0.01 0.01 40 1021.1
20260508111519 60 78 4.3 11.3 0.00 0.01 0.01 40 1021.2
20260508111028 60 76 3.5 11.3 0.00 0.01 0.01 42 1021.3
20260508110533 60 90 4.3 12.2 0.00 0.01 0.01 40 1021.3
20260508110012 60 71 5.2 14.8 0.00 0.01 0.01 39 1021.5
20260508105512 60 302 3.5 14.8 0.00 0.01 0.01 41 1021.6
20260508105014 60 69 2.6 8.7 0.00 0.01 0.01 40 1021.4
20260508104512 60 113 4.3 11.3 0.00 0.01 0.01 44 1021.4
20260508104010 60 92 3.5 11.3 0.00 0.01 0.01 44 1021.4
20260508103511 60 57 4.3 9.6 0.00 0.01 0.01 44 1021.5
20260508103003 60 73 3.5 11.3 0.00 0.01 0.01 40 1021.6
20260508102458 60 54 2.6 10.4 0.00 0.01 0.01 46 1021.5
20260508101951 59 61 2.6 10.4 0.00 0.01 0.01 42 1021.6
20260508101712 60 80 2.6 10.4 0.00 0.01 0.01 42 1021.6
20260508101213 59 81 3.5 12.2 0.00 0.01 0.01 46 1021.6
20260508100451 59 47 4.3 13.0 0.00 0.01 0.01 41 1021.8
20260508095949 59 71 4.3 13.9 0.00 0.01 0.01 47 1021.7
20260508095448 59 66 4.3 13.9 0.00 0.01 0.01 43 1021.7
20260508094948 58 99 4.3 11.3 0.00 0.01 0.01 43 1021.7
20260508094449 59 326 5.2 13.9 0.00 0.01 0.01 45 1021.6
20260508093944 58 105 5.2 14.8 0.00 0.01 0.01 42 1021.6
20260508093444 58 106 4.3 14.8 0.00 0.01 0.01 43 1021.6
20260508093430 58 74 3.5 11.3 0.00 0.01 0.01 46 1021.6
20260508092442 58 96 3.5 13.0 0.00 0.01 0.01 45 1021.7
20260508091942 57 44 4.3 13.9 0.00 0.01 0.01 46 1021.6
20260508091442 57 98 4.3 13.9 0.00 0.01 0.01 45 1021.8
20260508090941 57 92 3.5 8.7 0.00 0.01 0.01 46 1021.6
20260508090441 57 49 3.5 12.2 0.00 0.01 0.01 47 1021.7
20260508085940 57 56 3.5 12.2 0.00 0.01 0.01 48 1021.8
20260508085442 57 76 3.5 12.2 0.00 0.01 0.01 49 1021.7
20260508084940 56 52 4.3 12.2 0.00 0.01 0.01 49 1021.7
20260508084438 56 73 5.2 13.9 0.00 0.01 0.01 49 1021.9
20260508083937 56 60 4.3 13.9 0.00 0.01 0.01 46 1021.7
20260508083437 56 92 4.3 13.0 0.00 0.01 0.01 46 1021.8
20260508082936 55 97 3.5 13.0 0.00 0.01 0.01 48 1021.8
20260508082436 55 338 3.5 13.0 0.00 0.01 0.01 47 1021.7
20260508081935 55 73 2.6 9.6 0.00 0.01 0.01 49 1021.7
20260508081652 55 67 3.5 8.7 0.00 0.01 0.01 51 1021.8
20260508080925 55 62 3.5 12.2 0.00 0.01 0.01 49 1021.7
20260508080423 55 138 3.5 12.2 0.00 0.01 0.01 46 1021.9
20260508075921 54 72 3.5 8.7 0.00 0.01 0.01 53 1022.0
20260508075422 54 106 3.5 12.2 0.00 0.01 0.01 49 1022.0
20260508074920 54 103 2.6 12.2 0.00 0.01 0.01 54 1021.7
20260508074904 54 345 3.5 9.6 0.00 0.01 0.01 53 1022.0
20260508073919 53 49 4.3 9.6 0.00 0.01 0.01 50 1022.0
20260508073644 53 53 3.5 10.4 0.00 0.01 0.01 52 1022.1
20260508072920 53 95 3.5 10.4 0.00 0.01 0.01 50 1021.9
20260508072421 52 132 3.5 13.9 0.00 0.01 0.01 51 1022.0
20260508071920 53 65 2.6 13.9 0.00 0.01 0.01 51 1022.0
20260508071419 52 94 3.5 9.6 0.00 0.01 0.01 55 1022.0
20260508070918 52 136 3.5 9.6 0.00 0.01 0.01 54 1022.0
20260508070643 51 96 2.6 7.0 0.00 0.01 0.01 58 1021.9
20260508065918 51 82 2.6 7.8 0.00 0.01 0.01 55 1022.0
20260508065418 51 65 2.6 9.6 0.00 0.01 0.01 58 1021.9
20260508064929 51 69 3.5 10.4 0.00 0.01 0.01 59 1021.9
20260508064414 50 65 2.6 10.4 0.00 0.01 0.01 60 1021.8
20260508063912 50 89 2.6 9.6 0.00 0.01 0.01 61 1021.8
20260508063413 49 163 2.6 9.6 0.00 0.01 0.01 66 1021.8
20260508063132 49 36 2.6 7.8 0.00 0.01 0.01 65 1021.8
20260508062414 48 331 2.6 7.8 0.00 0.01 0.01 66 1021.7
20260508062133 48 104 2.6 7.8 0.00 0.01 0.01 67 1021.8
20260508061412 48 82 2.6 7.8 0.00 0.01 0.01 68 1021.8
20260508060913 47 90 2.6 7.8 0.00 0.01 0.01 68 1021.6
20260508060412 47 88 2.6 7.8 0.00 0.02 0.01 71 1021.5
20260508055912 47 88 1.7 7.8 0.00 0.02 0.01 69 1021.6
20260508055412 47 320 1.7 7.8 0.00 0.02 0.01 69 1021.5
20260508055136 46 91 2.6 7.8 0.00 0.02 0.01 72 1021.5
20260508054412 46 86 2.6 7.8 0.00 0.02 0.01 70 1021.5
20260508053911 46 79 1.7 7.8 0.00 0.02 0.01 75 1021.5
20260508053411 46 90 2.6 9.6 0.00 0.02 0.01 74 1021.6
20260508052909 45 38 1.7 9.6 0.00 0.02 0.01 78 1021.5
20260508052406 45 59 0.9 6.1 0.00 0.02 0.01 81 1021.6
20260508051906 44 94 0.9 6.1 0.00 0.02 0.01 83 1021.6
20260508051418 43 344 0.9 3.5 0.00 0.03 0.01 87 1021.3
20260508050904 42 339 0.9 4.3 0.00 0.03 0.01 89 1021.3
20260508050405 42 339 1.7 4.3 0.00 0.03 0.01 90 1021.4
20260508045904 42 333 0.9 3.5 0.00 0.03 0.01 91 1021.3
20260508045403 42 325 0.9 3.5 0.00 0.03 0.01 91 1021.2
20260508044918 41 311 0.9 3.5 0.00 0.03 0.01 92 1021.1
20260508044628 41 71 0.9 4.3 0.00 0.03 0.01 93 1021.1
20260508043904 41 326 0.9 4.3 0.00 0.03 0.01 94 1021.1
20260508043624 40 94 0.0 0.0 0.00 0.03 0.01 95 1021.0
20260508042904 40 95 0.0 0.9 0.00 0.03 0.01 96 1020.9
20260508042401 39 95 0.0 1.7 0.00 0.03 0.01 96 1020.8
20260508041857 38 95 0.0 1.7 0.00 0.03 0.01 97 1020.8
20260508041358 38 96 0.0 0.0 0.00 0.03 0.01 97 1020.8
20260508040858 38 96 0.0 0.0 0.00 0.03 0.01 97 1020.7
20260508040618 37 96 0.0 0.0 0.01 0.03 0.01 97 1020.6
20260508035858 37 96 0.0 0.9 0.01 0.03 0.01 97 1020.6
20260508035358 37 96 0.0 0.9 0.01 0.03 0.01 97 1020.5
20260508034859 36 96 0.0 1.7 0.01 0.03 0.01 97 1020.6
20260508034350 36 96 0.0 1.7 0.01 0.03 0.01 97 1020.5
20260508033851 36 98 0.0 1.7 0.01 0.03 0.01 98 1020.6
20260508033352 36 98 0.0 1.7 0.01 0.03 0.01 98 1020.4
20260508032852 35 98 0.0 1.7 0.01 0.03 0.01 97 1020.4
20260508032351 35 98 0.0 0.9 0.01 0.03 0.01 97 1020.4
20260508031852 35 85 0.0 0.0 0.01 0.03 0.01 97 1020.3
20260508031351 35 85 0.0 0.0 0.01 0.03 0.01 97 1020.3
20260508030847 35 85 0.0 0.9 0.01 0.03 0.01 97 1020.2
20260508030827 34 85 0.0 0.9 0.00 0.02 0.00 97 1020.1
20260508025845 34 85 0.0 0.9 0.00 0.02 0.00 97 1020.0
20260508025346 34 85 0.0 0.0 0.00 0.02 0.00 97 1020.0
20260508025051 34 85 0.0 0.0 0.00 0.02 0.00 97 1019.9
20260508024930 34 85 0.0 0.0 0.00 0.02 0.00 97 1020.1
20260508023842 34 85 0.0 0.0 0.00 0.02 0.00 97 1019.9
20260508023336 34 85 0.0 0.0 0.00 0.02 0.00 97 1019.8
20260508023053 33 85 0.0 0.0 0.00 0.02 0.00 97 1019.9
20260508022323 33 85 0.0 0.0 0.00 0.03 0.00 97 1019.8
20260508021823 34 85 0.0 0.0 0.00 0.03 0.00 97 1019.7
20260508021320 33 85 0.0 0.0 0.00 0.03 0.00 97 1019.8
20260508020819 34 85 0.0 0.0 0.00 0.03 0.00 97 1019.7
20260508020321 34 85 0.0 0.9 0.00 0.03 0.00 97 1019.6
20260508015817 35 85 0.0 0.9 0.00 0.03 0.00 97 1019.7
20260508015315 34 85 0.0 0.9 0.00 0.03 0.00 97 1019.7
20260508014813 34 85 0.0 0.9 0.00 0.03 0.00 97 1019.6
20260508014536 34 85 0.0 0.0 0.00 0.03 0.00 97 1019.5
20260508013811 34 85 0.0 0.0 0.00 0.03 0.00 97 1019.5
20260508013309 34 85 0.0 1.7 0.00 0.03 0.00 97 1019.4
20260508012809 34 85 0.0 1.7 0.00 0.03 0.00 97 1019.4
20260508012308 34 85 0.0 2.6 0.00 0.03 0.00 97 1019.4
20260508011807 34 85 0.0 2.6 0.00 0.03 0.00 97 1019.5
20260508011307 33 85 0.0 1.7 0.00 0.03 0.00 97 1019.4
20260508010808 33 85 0.0 1.7 0.00 0.03 0.00 97 1019.4
20260508010305 34 85 0.0 0.0 0.00 0.03 0.00 97 1019.4
20260508005805 34 85 0.0 0.0 0.00 0.03 0.00 97 1019.4
20260508005306 34 85 0.0 0.9 0.00 0.03 0.00 97 1019.4
20260508004801 33 85 0.0 0.9 0.00 0.03 0.00 97 1019.4
20260508004301 33 85 0.0 1.7 0.00 0.03 0.00 97 1019.2
20260508003757 33 85 0.0 1.7 0.00 0.03 0.00 97 1019.3
20260508003517 34 86 0.0 0.0 0.00 0.03 0.00 97 1019.4
20260508002757 34 86 0.0 0.0 0.00 0.03 0.00 97 1019.3
20260508002254 34 86 0.0 0.0 0.00 0.03 0.00 97 1019.2
20260508001757 34 86 0.0 0.0 0.00 0.03 0.00 97 1019.2
20260508001253 34 86 0.0 0.0 0.00 0.03 0.00 96 1019.0
20260508000752 34 86 0.0 0.0 0.00 0.03 0.00 97 1019.0
20260508000251 34 86 0.0 0.0 0.00 0.03 0.00 97 1018.9
20260507235752 34 86 0.0 0.0 0.00 0.03 0.00 97 1018.9
20260507235251 34 86 0.0 0.0 0.00 0.03 0.00 97 1018.8
20260507234751 34 86 0.0 0.0 0.00 0.03 0.00 97 1018.7
20260507234250 34 86 0.0 0.0 0.00 0.03 0.00 96 1018.6
20260507233752 34 86 0.0 0.0 0.00 0.03 0.00 96 1018.3
20260507233251 34 86 0.0 0.0 0.00 0.03 0.00 96 1018.4
20260507232749 34 86 0.0 0.0 0.00 0.03 0.00 96 1018.4
20260507232250 34 86 0.0 0.0 0.00 0.03 0.00 96 1018.3
20260507231749 35 86 0.0 0.0 0.00 0.03 0.00 96 1018.2
20260507231247 35 86 0.0 0.0 0.00 0.03 0.00 96 1018.1
20260507230745 34 86 0.0 0.0 0.00 0.03 0.00 96 1018.0
20260507230246 34 86 0.0 0.0 0.00 0.03 0.00 96 1017.8
20260507225744 35 86 0.0 0.0 0.00 0.03 0.00 96 1017.9
20260507225238 35 86 0.0 0.0 0.00 0.03 0.00 96 1017.8
20260507224739 35 86 0.0 0.0 0.00 0.03 0.00 96 1017.8
20260507224457 35 86 0.0 0.0 0.00 0.03 0.00 96 1017.9
20260507223734 35 86 0.0 0.0 0.00 0.03 0.00 96 1017.9
20260507223457 35 86 0.0 0.0 0.00 0.03 0.00 96 1017.9
20260507222734 35 86 0.0 0.0 0.00 0.03 0.00 96 1017.9
20260507222230 35 86 0.0 0.0 0.00 0.03 0.00 96 1017.8
20260507221729 35 86 0.0 0.0 0.00 0.03 0.00 96 1017.8
20260507221228 35 86 0.0 0.0 0.00 0.03 0.00 96 1017.8
20260507220727 36 86 0.0 0.0 0.00 0.03 0.00 96 1017.8
20260507220445 35 86 0.0 0.0 0.00 0.03 0.00 96 1017.8
20260507215724 36 86 0.0 0.0 0.00 0.03 0.00 96 1017.8
20260507215223 36 86 0.0 0.0 0.00 0.03 0.00 96 1017.5
20260507214723 36 86 0.0 0.0 0.00 0.03 0.00 96 1017.5
20260507214443 36 86 0.0 0.0 0.00 0.03 0.00 96 1017.7
20260507213943 36 86 0.0 0.0 0.00 0.03 0.00 96 1017.7
20260507213220 36 86 0.0 0.0 0.00 0.03 0.00 96 1017.5
20260507212721 36 86 0.0 0.0 0.00 0.03 0.00 96 1017.7
20260507212438 36 86 0.0 0.0 0.00 0.03 0.00 95 1017.5
20260507211718 36 86 0.0 0.0 0.00 0.03 0.00 96 1017.4
20260507211220 36 86 0.0 0.0 0.00 0.03 0.00 95 1017.3
20260507210719 37 86 0.0 0.0 0.00 0.03 0.00 96 1017.3
20260507210218 36 86 0.0 0.0 0.00 0.03 0.00 95 1017.1
20260507205717 36 86 0.0 0.0 0.00 0.03 0.03 95 1017.0
20260507205219 36 86 0.0 0.0 0.00 0.03 0.03 94 1017.2
20260507204717 37 86 0.0 0.0 0.00 0.03 0.03 95 1016.9
20260507204218 37 86 0.0 0.0 0.00 0.03 0.03 95 1016.9
20260507203716 37 86 0.0 0.0 0.00 0.03 0.03 95 1016.8
20260507203215 37 86 0.0 0.0 0.00 0.03 0.03 94 1016.7
20260507202714 37 86 0.0 0.0 0.00 0.03 0.03 94 1016.6
20260507202214 38 86 0.0 0.0 0.00 0.03 0.03 94 1016.7
20260507201726 38 86 0.0 0.0 0.00 0.03 0.03 94 1016.7
20260507201209 38 86 0.0 0.0 0.00 0.03 0.03 94 1016.5
20260507200708 38 86 0.0 0.0 0.00 0.03 0.03 94 1016.5
20260507200205 38 86 0.0 0.0 0.00 0.03 0.03 93 1016.4
20260507195925 39 86 0.0 0.0 0.00 0.03 0.03 94 1016.3
20260507195206 40 86 0.0 0.0 0.00 0.03 0.03 94 1016.2
20260507194708 40 86 0.0 0.0 0.00 0.03 0.03 94 1016.2
20260507194206 39 86 0.0 0.0 0.00 0.03 0.03 93 1016.1
20260507193924 39 86 0.0 0.0 0.00 0.04 0.03 93 1016.1
20260507193201 39 86 0.0 0.0 0.00 0.04 0.03 93 1016.0
20260507192703 40 86 0.0 0.0 0.00 0.04 0.03 92 1015.8
20260507192427 40 86 0.0 0.0 0.00 0.04 0.03 92 1015.8
20260507191659 40 86 0.0 0.0 0.00 0.04 0.03 92 1015.8
20260507191201 40 86 0.0 0.0 0.00 0.04 0.03 91 1015.8
20260507190659 41 86 0.0 0.0 0.00 0.04 0.03 89 1015.7
20260507190157 42 86 0.0 0.0 0.00 0.04 0.03 89 1015.7
20260507185655 42 86 0.0 0.0 0.00 0.05 0.03 89 1015.7
20260507185158 42 86 0.0 0.0 0.00 0.05 0.03 89 1015.6
20260507184651 42 86 0.0 0.0 0.00 0.05 0.03 89 1015.6
20260507184152 42 86 0.0 0.0 0.00 0.06 0.03 87 1015.6
20260507183652 44 86 0.0 0.0 0.00 0.06 0.03 87 1015.5
20260507183151 44 86 0.0 0.0 0.00 0.06 0.03 86 1015.2
20260507182920 44 86 0.0 0.0 0.00 0.06 0.03 86 1015.0
20260507182151 45 86 0.0 0.0 0.00 0.06 0.03 85 1015.2
20260507181648 45 86 0.0 0.0 0.00 0.06 0.03 84 1015.1
20260507181143 46 86 0.0 0.0 0.00 0.07 0.03 83 1015.1
20260507180639 46 86 0.0 0.0 0.00 0.07 0.03 82 1014.9
20260507180139 47 86 0.0 0.0 0.00 0.07 0.03 82 1014.9
20260507175635 47 86 0.0 0.0 0.00 0.08 0.03 82 1014.8
20260507175352 47 86 0.0 0.0 0.00 0.09 0.03 81 1014.9
20260507174633 48 86 0.0 0.9 0.00 0.09 0.03 80 1014.7
20260507174131 48 86 0.0 1.7 0.00 0.10 0.03 80 1014.8
20260507173631 48 86 0.0 2.6 0.00 0.11 0.03 80 1014.7
20260507173131 49 81 0.9 3.5 0.00 0.12 0.03 79 1014.7
20260507172633 49 82 1.7 6.1 0.00 0.12 0.03 79 1014.7
20260507172129 49 83 1.7 6.1 0.00 0.13 0.03 78 1014.7
20260507171629 49 88 0.9 7.0 0.00 0.13 0.03 79 1014.7
20260507171130 49 89 0.9 7.0 0.00 0.14 0.03 79 1014.5
20260507170629 49 90 0.9 5.2 0.00 0.14 0.03 79 1014.6
20260507170400 49 93 0.9 5.2 0.00 0.15 0.03 80 1014.7
20260507165629 49 93 1.7 5.2 0.00 0.15 0.03 79 1014.4
20260507165125 50 75 1.7 5.2 0.00 0.16 0.03 78 1014.4
20260507164623 50 57 1.7 5.2 0.00 0.17 0.03 78 1014.3
20260507164123 50 329 2.6 7.8 0.00 0.17 0.03 78 1014.4
20260507163849 50 92 1.7 7.8 0.00 0.17 0.03 77 1014.3
20260507163119 50 91 0.9 3.5 0.00 0.18 0.03 80 1014.2
20260507162619 49 101 1.7 5.2 0.00 0.20 0.03 80 1014.1
20260507162121 49 64 2.6 6.1 0.00 0.20 0.03 80 1014.0
20260507161837 49 84 1.7 6.1 0.00 0.20 0.03 79 1013.9
20260507161119 49 69 1.7 5.2 0.00 0.21 0.03 80 1014.0
20260507160614 49 85 1.7 6.1 0.00 0.22 0.03 79 1013.9
20260507160113 49 51 1.7 6.1 0.00 0.22 0.03 79 1013.9
20260507155610 49 323 2.6 6.1 0.00 0.23 0.03 79 1013.8
20260507155109 49 74 2.6 7.0 0.00 0.23 0.03 79 1013.9
20260507154611 49 62 1.7 7.0 0.00 0.24 0.03 79 1013.8
20260507154109 49 80 1.7 7.8 0.00 0.24 0.03 80 1013.7
20260507153609 49 309 1.7 7.8 0.00 0.24 0.03 81 1013.6
20260507153109 49 277 2.6 6.1 0.00 0.24 0.03 81 1013.5
20260507152609 49 66 2.6 9.6 0.00 0.24 0.03 80 1013.7
20260507152106 49 333 1.7 9.6 0.00 0.24 0.03 81 1013.5
20260507151605 49 71 1.7 7.8 0.00 0.24 0.03 81 1013.7
20260507151107 49 69 1.7 7.8 0.00 0.24 0.03 80 1013.6
20260507150612 49 5 1.7 5.2 0.00 0.24 0.03 80 1013.6
20260507150605 49 28 1.7 5.2 0.00 0.24 0.03 80 1013.6
20260507145829 49 51 1.7 5.2 0.00 0.24 0.03 80 1013.5